owner,sensor,date,latitude,longitude,vertical_datum,sea_water_temperature,qcFlag
BP,ioos:station:wmo:42374:1,2020-04-14T10:15:00Z,28.8662,-88.0563,4.1,24.2,11111222
BP,ioos:station:wmo:42374:1,2020-04-14T10:35:00Z,28.8662,-88.0563,4.3,24.2,11111222
BP,ioos:station:wmo:42374:1,2020-04-14T10:55:00Z,28.8662,-88.0563,4.3,24.3,11111222
BP,ioos:station:wmo:42374:1,2020-04-14T11:15:00Z,28.8662,-88.0563,4.1,24.2,11111222
BP,ioos:station:wmo:42374:1,2020-04-14T11:35:00Z,28.8662,-88.0563,4.3,24.2,11111222
BP,ioos:station:wmo:42374:1,2020-04-14T11:55:00Z,28.8662,-88.0563,4.4,24.2,11111222
BP,ioos:station:wmo:42374:1,2020-04-14T12:15:00Z,28.8662,-88.0563,4.3,24.2,11111222
BP,ioos:station:wmo:42374:1,2020-04-14T12:35:00Z,28.8662,-88.0563,4.2,24.2,11111222
BP,ioos:station:wmo:42374:1,2020-04-14T12:55:00Z,28.8662,-88.0563,4.4,24.2,11111222
BP,ioos:station:wmo:42374:1,2020-04-14T13:15:00Z,28.8662,-88.0563,4.4,24.2,11111222
BP,ioos:station:wmo:42374:1,2020-04-14T13:35:00Z,28.8662,-88.0563,4.3,24.2,11111222
BP,ioos:station:wmo:42374:1,2020-04-14T13:55:00Z,28.8662,-88.0563,4.3,24.2,11111222
BP,ioos:station:wmo:42374:1,2020-04-14T14:15:00Z,28.8662,-88.0563,4.4,24.2,11111222
BP,ioos:station:wmo:42374:1,2020-04-14T14:35:00Z,28.8662,-88.0563,4.3,24.3,11111222
BP,ioos:station:wmo:42374:1,2020-04-14T14:55:00Z,28.8662,-88.0563,4.4,24.3,11111222
BP,ioos:station:wmo:42374:1,2020-04-14T15:15:00Z,28.8662,-88.0563,4.1,24.3,11111222
BP,ioos:station:wmo:42374:1,2020-04-14T15:35:00Z,28.8662,-88.0563,4.2,24.3,11111222
BP,ioos:station:wmo:42374:1,2020-04-14T15:55:00Z,28.8662,-88.0563,4.3,24.3,11111222
BP,ioos:station:wmo:42374:1,2020-04-14T16:15:00Z,28.8662,-88.0563,4.4,24.3,11111222
BP,ioos:station:wmo:42374:1,2020-04-14T16:35:00Z,28.8662,-88.0563,4.2,24.3,11111222
BP,ioos:station:wmo:42374:1,2020-04-14T16:55:00Z,28.8662,-88.0563,3.9,24.3,11111222
BP,ioos:station:wmo:42374:1,2020-04-14T17:15:00Z,28.8662,-88.0563,3.8,24.3,11111222
BP,ioos:station:wmo:42374:1,2020-04-14T17:35:00Z,28.8662,-88.0563,4.2,24.3,11111222
BP,ioos:station:wmo:42374:1,2020-04-14T17:55:00Z,28.8662,-88.0563,4.2,24.3,11111222
BP,ioos:station:wmo:42374:1,2020-04-14T18:15:00Z,28.8662,-88.0563,4.1,24.4,11111222
BP,ioos:station:wmo:42374:1,2020-04-14T18:35:00Z,28.8662,-88.0563,3.9,24.4,11111222
BP,ioos:station:wmo:42374:1,2020-04-14T18:55:00Z,28.8662,-88.0563,4.2,24.4,11111222
BP,ioos:station:wmo:42374:1,2020-04-14T19:15:00Z,28.8662,-88.0563,4.0,24.4,11111222
BP,ioos:station:wmo:42374:1,2020-04-14T19:35:00Z,28.8662,-88.0563,4.1,24.4,11111222
BP,ioos:station:wmo:42374:1,2020-04-14T19:55:00Z,28.8662,-88.0563,4.0,24.4,11111222
BP,ioos:station:wmo:42374:1,2020-04-14T20:15:00Z,28.8662,-88.0563,4.0,24.4,11111222
BP,ioos:station:wmo:42374:1,2020-04-14T20:35:00Z,28.8662,-88.0563,4.0,24.3,11111222
BP,ioos:station:wmo:42374:1,2020-04-14T20:55:00Z,28.8662,-88.0563,4.3,24.3,11111222
BP,ioos:station:wmo:42374:1,2020-04-14T21:15:00Z,28.8662,-88.0563,4.4,24.3,11111222
BP,ioos:station:wmo:42374:1,2020-04-14T21:35:00Z,28.8662,-88.0563,4.1,24.3,11111222
BP,ioos:station:wmo:42374:1,2020-04-14T21:55:00Z,28.8662,-88.0563,4.2,24.3,11111222
BP,ioos:station:wmo:42374:1,2020-04-14T22:15:00Z,28.8662,-88.0563,4.3,24.3,11111222
BP,ioos:station:wmo:42374:1,2020-04-14T22:35:00Z,28.8662,-88.0563,4.3,24.2,11111222
BP,ioos:station:wmo:42374:1,2020-04-14T22:55:00Z,28.8662,-88.0563,4.1,24.2,11111222
BP,ioos:station:wmo:42374:1,2020-04-14T23:15:00Z,28.8662,-88.0563,4.2,24.2,11111222
BP,ioos:station:wmo:42374:1,2020-04-14T23:35:00Z,28.8662,-88.0563,4.2,24.2,11111222
BP,ioos:station:wmo:42374:1,2020-04-14T23:55:00Z,28.8662,-88.0563,4.2,24.2,11111222
BP,ioos:station:wmo:42374:1,2020-04-15T00:15:00Z,28.8662,-88.0563,4.2,24.2,11111222
BP,ioos:station:wmo:42374:1,2020-04-15T00:35:00Z,28.8662,-88.0563,4.2,24.2,11111222
BP,ioos:station:wmo:42374:1,2020-04-15T00:55:00Z,28.8662,-88.0563,4.3,24.2,11111222
BP,ioos:station:wmo:42374:1,2020-04-15T01:15:00Z,28.8662,-88.0563,4.2,24.2,11111222
BP,ioos:station:wmo:42374:1,2020-04-15T01:35:00Z,28.8662,-88.0563,4.0,24.2,11111222
BP,ioos:station:wmo:42374:1,2020-04-15T01:55:00Z,28.8662,-88.0563,4.0,24.2,11111222
BP,ioos:station:wmo:42374:1,2020-04-15T02:15:00Z,28.8662,-88.0563,4.1,24.2,11111222
BP,ioos:station:wmo:42374:1,2020-04-15T02:35:00Z,28.8662,-88.0563,4.0,24.2,11111222
BP,ioos:station:wmo:42374:1,2020-04-15T02:55:00Z,28.8662,-88.0563,4.1,24.2,11111222
BP,ioos:station:wmo:42374:1,2020-04-15T03:15:00Z,28.8662,-88.0563,4.4,24.2,11111222
BP,ioos:station:wmo:42374:1,2020-04-15T03:35:00Z,28.8662,-88.0563,4.3,24.2,11111222
BP,ioos:station:wmo:42374:1,2020-04-15T03:55:00Z,28.8662,-88.0563,4.2,24.1,11111222
BP,ioos:station:wmo:42374:1,2020-04-15T04:15:00Z,28.8662,-88.0563,4.1,24.1,11111222
BP,ioos:station:wmo:42374:1,2020-04-15T04:35:00Z,28.8662,-88.0563,4.0,24.1,11111222
BP,ioos:station:wmo:42374:1,2020-04-15T04:55:00Z,28.8662,-88.0563,4.2,24.1,11111222
BP,ioos:station:wmo:42374:1,2020-04-15T05:15:00Z,28.8662,-88.0563,4.1,24.1,11111222
BP,ioos:station:wmo:42374:1,2020-04-15T05:35:00Z,28.8662,-88.0563,4.3,24.1,11111222
BP,ioos:station:wmo:42374:1,2020-04-15T05:55:00Z,28.8662,-88.0563,4.2,24.1,11111222
BP,ioos:station:wmo:42374:1,2020-04-15T06:15:00Z,28.8662,-88.0563,4.1,24.1,11111222
BP,ioos:station:wmo:42374:1,2020-04-15T06:35:00Z,28.8662,-88.0563,4.2,24.1,11111222
BP,ioos:station:wmo:42374:1,2020-04-15T06:55:00Z,28.8662,-88.0563,4.2,24.1,11111222
BP,ioos:station:wmo:42374:1,2020-04-15T07:15:00Z,28.8662,-88.0563,4.4,24.1,11111222
BP,ioos:station:wmo:42374:1,2020-04-15T07:35:00Z,28.8662,-88.0563,4.3,24.1,11111222
BP,ioos:station:wmo:42374:1,2020-04-15T07:55:00Z,28.8662,-88.0563,4.1,24.1,11111222
BP,ioos:station:wmo:42374:1,2020-04-15T08:15:00Z,28.8662,-88.0563,4.4,24.1,11111222
BP,ioos:station:wmo:42374:1,2020-04-15T08:35:00Z,28.8662,-88.0563,4.4,24.1,11111222
BP,ioos:station:wmo:42374:1,2020-04-15T08:55:00Z,28.8662,-88.0563,4.2,24.0,11111222
BP,ioos:station:wmo:42374:1,2020-04-15T09:15:00Z,28.8662,-88.0563,4.2,24.0,11111222
BP,ioos:station:wmo:42374:1,2020-04-15T09:35:00Z,28.8662,-88.0563,4.2,24.0,11111222
BP,ioos:station:wmo:42374:1,2020-04-15T09:55:00Z,28.8662,-88.0563,4.2,24.0,11111222
BP,ioos:station:wmo:42374:1,2020-04-15T10:15:00Z,28.8662,-88.0563,4.2,24.0,11111222
BP,ioos:station:wmo:42374:1,2020-04-15T10:35:00Z,28.8662,-88.0563,4.0,24.0,11111222
BP,ioos:station:wmo:42374:1,2020-04-15T10:55:00Z,28.8662,-88.0563,3.9,24.0,11111222
BP,ioos:station:wmo:42374:1,2020-04-15T11:15:00Z,28.8662,-88.0563,3.9,24.0,11111222
BP,ioos:station:wmo:42374:1,2020-04-15T11:35:00Z,28.8662,-88.0563,4.0,24.0,11111222
BP,ioos:station:wmo:42374:1,2020-04-15T11:55:00Z,28.8662,-88.0563,4.0,23.9,11111222
BP,ioos:station:wmo:42374:1,2020-04-15T12:15:00Z,28.8662,-88.0563,3.7,23.9,11111222
BP,ioos:station:wmo:42374:1,2020-04-15T12:35:00Z,28.8662,-88.0563,4.0,23.9,11111222
BP,ioos:station:wmo:42374:1,2020-04-15T12:55:00Z,28.8662,-88.0563,4.3,23.9,11111222
BP,ioos:station:wmo:42374:1,2020-04-15T13:15:00Z,28.8662,-88.0563,3.8,23.9,11111222
BP,ioos:station:wmo:42374:1,2020-04-15T13:35:00Z,28.8662,-88.0563,3.9,23.9,11111222
BP,ioos:station:wmo:42374:1,2020-04-15T13:55:00Z,28.8662,-88.0563,4.0,23.9,11111222
BP,ioos:station:wmo:42374:1,2020-04-15T14:15:00Z,28.8662,-88.0563,4.0,23.9,11111222
BP,ioos:station:wmo:42374:1,2020-04-15T14:35:00Z,28.8662,-88.0563,3.8,23.9,11111222
BP,ioos:station:wmo:42374:1,2020-04-15T14:55:00Z,28.8662,-88.0563,4.0,23.9,11111222
BP,ioos:station:wmo:42374:1,2020-04-15T15:15:00Z,28.8662,-88.0563,4.0,23.9,11111222
BP,ioos:station:wmo:42374:1,2020-04-15T15:35:00Z,28.8662,-88.0563,3.8,23.9,11111222
BP,ioos:station:wmo:42374:1,2020-04-15T15:55:00Z,28.8662,-88.0563,3.9,24.0,11111222
BP,ioos:station:wmo:42374:1,2020-04-15T16:15:00Z,28.8662,-88.0563,4.1,24.0,11111222
BP,ioos:station:wmo:42374:1,2020-04-15T16:35:00Z,28.8662,-88.0563,4.2,24.1,11111222
BP,ioos:station:wmo:42374:1,2020-04-15T16:55:00Z,28.8662,-88.0563,4.4,24.1,11111222
BP,ioos:station:wmo:42374:1,2020-04-15T17:15:00Z,28.8662,-88.0563,4.5,24.1,11111222
BP,ioos:station:wmo:42374:1,2020-04-15T17:35:00Z,28.8662,-88.0563,4.4,24.1,11111222
BP,ioos:station:wmo:42374:1,2020-04-15T17:55:00Z,28.8662,-88.0563,4.4,24.2,11111222
BP,ioos:station:wmo:42374:1,2020-04-15T18:15:00Z,28.8662,-88.0563,4.4,24.2,11111222
BP,ioos:station:wmo:42374:1,2020-04-15T18:35:00Z,28.8662,-88.0563,4.6,24.2,11111222
BP,ioos:station:wmo:42374:1,2020-04-15T18:55:00Z,28.8662,-88.0563,4.0,24.2,11111222
BP,ioos:station:wmo:42374:1,2020-04-15T19:15:00Z,28.8662,-88.0563,4.4,24.2,11111222
BP,ioos:station:wmo:42374:1,2020-04-15T19:35:00Z,28.8662,-88.0563,4.2,24.2,11111222
BP,ioos:station:wmo:42374:1,2020-04-15T19:55:00Z,28.8662,-88.0563,4.2,24.2,11111222
BP,ioos:station:wmo:42374:1,2020-04-15T20:15:00Z,28.8662,-88.0563,4.4,24.2,11111222
BP,ioos:station:wmo:42374:1,2020-04-15T20:35:00Z,28.8662,-88.0563,4.2,24.3,11111222
BP,ioos:station:wmo:42374:1,2020-04-15T20:55:00Z,28.8662,-88.0563,4.2,24.3,11111222
BP,ioos:station:wmo:42374:1,2020-04-15T21:15:00Z,28.8662,-88.0563,4.1,24.3,11111222
BP,ioos:station:wmo:42374:1,2020-04-15T21:35:00Z,28.8662,-88.0563,4.2,24.3,11111222
BP,ioos:station:wmo:42374:1,2020-04-15T21:55:00Z,28.8662,-88.0563,4.2,24.3,11111222
BP,ioos:station:wmo:42374:1,2020-04-15T22:15:00Z,28.8662,-88.0563,4.2,24.3,11111222
BP,ioos:station:wmo:42374:1,2020-04-15T22:35:00Z,28.8662,-88.0563,4.2,24.2,11111222
BP,ioos:station:wmo:42374:1,2020-04-15T22:55:00Z,28.8662,-88.0563,4.3,24.3,11111222
BP,ioos:station:wmo:42374:1,2020-04-15T23:15:00Z,28.8662,-88.0563,4.1,24.3,11111222
BP,ioos:station:wmo:42374:1,2020-04-15T23:35:00Z,28.8662,-88.0563,4.1,24.3,11111222
BP,ioos:station:wmo:42374:1,2020-04-15T23:55:00Z,28.8662,-88.0563,4.4,24.3,11111222
BP,ioos:station:wmo:42374:1,2020-04-16T00:15:00Z,28.8662,-88.0563,4.3,24.2,11111222
BP,ioos:station:wmo:42374:1,2020-04-16T00:35:00Z,28.8662,-88.0563,4.3,24.2,11111222
BP,ioos:station:wmo:42374:1,2020-04-16T00:55:00Z,28.8662,-88.0563,4.0,24.2,11111222
BP,ioos:station:wmo:42374:1,2020-04-16T01:15:00Z,28.8662,-88.0563,3.9,24.2,11111222
BP,ioos:station:wmo:42374:1,2020-04-16T01:35:00Z,28.8662,-88.0563,4.1,24.2,11111222
BP,ioos:station:wmo:42374:1,2020-04-16T01:55:00Z,28.8662,-88.0563,4.3,24.3,11111222
BP,ioos:station:wmo:42374:1,2020-04-16T02:15:00Z,28.8662,-88.0563,4.1,24.3,11111222
BP,ioos:station:wmo:42374:1,2020-04-16T02:35:00Z,28.8662,-88.0563,4.2,24.3,11111222
BP,ioos:station:wmo:42374:1,2020-04-16T02:55:00Z,28.8662,-88.0563,4.0,24.2,11111222
BP,ioos:station:wmo:42374:1,2020-04-16T03:15:00Z,28.8662,-88.0563,4.1,24.2,11111222
BP,ioos:station:wmo:42374:1,2020-04-16T03:35:00Z,28.8662,-88.0563,4.2,24.2,11111222
BP,ioos:station:wmo:42374:1,2020-04-16T03:55:00Z,28.8662,-88.0563,4.0,24.2,11111222
BP,ioos:station:wmo:42374:1,2020-04-16T04:15:00Z,28.8662,-88.0563,4.3,24.2,11111222
BP,ioos:station:wmo:42374:1,2020-04-16T04:35:00Z,28.8662,-88.0563,3.9,24.2,11111222
BP,ioos:station:wmo:42374:1,2020-04-16T04:55:00Z,28.8662,-88.0563,4.4,24.2,11111222
BP,ioos:station:wmo:42374:1,2020-04-16T05:15:00Z,28.8662,-88.0563,4.4,24.2,11111222
BP,ioos:station:wmo:42374:1,2020-04-16T05:35:00Z,28.8662,-88.0563,4.2,24.2,11111222
BP,ioos:station:wmo:42374:1,2020-04-16T05:55:00Z,28.8662,-88.0563,4.1,24.1,11111222
BP,ioos:station:wmo:42374:1,2020-04-16T06:15:00Z,28.8662,-88.0563,4.0,24.1,11111222
BP,ioos:station:wmo:42374:1,2020-04-16T06:35:00Z,28.8662,-88.0563,4.2,24.1,11111222
BP,ioos:station:wmo:42374:1,2020-04-16T06:55:00Z,28.8662,-88.0563,4.2,24.1,11111222
BP,ioos:station:wmo:42374:1,2020-04-16T07:15:00Z,28.8662,-88.0563,4.3,24.1,11111222
BP,ioos:station:wmo:42374:1,2020-04-16T07:35:00Z,28.8662,-88.0563,4.4,24.1,11111222
BP,ioos:station:wmo:42374:1,2020-04-16T07:55:00Z,28.8662,-88.0563,4.0,24.1,11111222
BP,ioos:station:wmo:42374:1,2020-04-16T08:15:00Z,28.8662,-88.0563,4.3,24.1,11111222
BP,ioos:station:wmo:42374:1,2020-04-16T08:35:00Z,28.8662,-88.0563,4.2,24.1,11111222
BP,ioos:station:wmo:42374:1,2020-04-16T08:55:00Z,28.8662,-88.0563,4.5,24.1,11111222
BP,ioos:station:wmo:42374:1,2020-04-16T09:15:00Z,28.8662,-88.0563,4.1,24.1,11111222
BP,ioos:station:wmo:42374:1,2020-04-16T09:35:00Z,28.8662,-88.0563,4.3,24.1,11111222
BP,ioos:station:wmo:42374:1,2020-04-16T09:55:00Z,28.8662,-88.0563,4.4,24.1,11111222
BP,ioos:station:wmo:42374:1,2020-04-16T10:15:00Z,28.8662,-88.0563,4.4,24.1,11111222
BP,ioos:station:wmo:42374:1,2020-04-16T10:35:00Z,28.8662,-88.0563,4.7,24.1,11111222
BP,ioos:station:wmo:42374:1,2020-04-16T10:55:00Z,28.8662,-88.0563,4.6,24.1,11111222
BP,ioos:station:wmo:42374:1,2020-04-16T11:15:00Z,28.8662,-88.0563,4.2,24.1,11111222
BP,ioos:station:wmo:42374:1,2020-04-16T11:35:00Z,28.8662,-88.0563,4.3,24.1,11111222
BP,ioos:station:wmo:42374:1,2020-04-16T11:55:00Z,28.8662,-88.0563,4.2,24.1,11111222
BP,ioos:station:wmo:42374:1,2020-04-16T12:15:00Z,28.8662,-88.0563,4.4,24.1,11111222
BP,ioos:station:wmo:42374:1,2020-04-16T12:35:00Z,28.8662,-88.0563,4.5,24.1,11111222
BP,ioos:station:wmo:42374:1,2020-04-16T12:55:00Z,28.8662,-88.0563,4.6,24.1,11111222
BP,ioos:station:wmo:42374:1,2020-04-16T13:15:00Z,28.8662,-88.0563,4.4,24.1,11111222
BP,ioos:station:wmo:42374:1,2020-04-16T13:35:00Z,28.8662,-88.0563,4.4,24.1,11111222
BP,ioos:station:wmo:42374:1,2020-04-16T13:55:00Z,28.8662,-88.0563,4.5,24.1,11111222
BP,ioos:station:wmo:42374:1,2020-04-16T14:15:00Z,28.8662,-88.0563,4.3,24.1,11111222
BP,ioos:station:wmo:42374:1,2020-04-16T14:35:00Z,28.8662,-88.0563,4.3,24.1,11111222
BP,ioos:station:wmo:42374:1,2020-04-16T14:55:00Z,28.8662,-88.0563,4.5,24.1,11111222
BP,ioos:station:wmo:42374:1,2020-04-16T15:15:00Z,28.8662,-88.0563,4.4,24.1,11111222
BP,ioos:station:wmo:42374:1,2020-04-16T15:35:00Z,28.8662,-88.0563,4.4,24.1,11111222
BP,ioos:station:wmo:42374:1,2020-04-16T15:55:00Z,28.8662,-88.0563,4.4,24.2,11111222
BP,ioos:station:wmo:42374:1,2020-04-16T16:15:00Z,28.8662,-88.0563,4.1,24.2,11111222
BP,ioos:station:wmo:42374:1,2020-04-16T16:35:00Z,28.8662,-88.0563,4.5,24.2,11111222
BP,ioos:station:wmo:42374:1,2020-04-16T16:55:00Z,28.8662,-88.0563,4.4,24.2,11111222
BP,ioos:station:wmo:42374:1,2020-04-16T17:15:00Z,28.8662,-88.0563,4.4,24.2,11111222
BP,ioos:station:wmo:42374:1,2020-04-16T17:35:00Z,28.8662,-88.0563,4.2,24.2,11111222
BP,ioos:station:wmo:42374:1,2020-04-16T17:55:00Z,28.8662,-88.0563,4.2,24.2,11111222
BP,ioos:station:wmo:42374:1,2020-04-16T18:15:00Z,28.8662,-88.0563,4.4,24.1,11111222
BP,ioos:station:wmo:42374:1,2020-04-16T18:35:00Z,28.8662,-88.0563,4.2,24.1,11111222
BP,ioos:station:wmo:42374:1,2020-04-16T18:55:00Z,28.8662,-88.0563,4.3,24.1,11111222
BP,ioos:station:wmo:42374:1,2020-04-16T19:15:00Z,28.8662,-88.0563,4.5,24.1,11111222
BP,ioos:station:wmo:42374:1,2020-04-16T19:35:00Z,28.8662,-88.0563,4.4,24.1,11111222
BP,ioos:station:wmo:42374:1,2020-04-16T19:55:00Z,28.8662,-88.0563,4.5,24.1,11111222
BP,ioos:station:wmo:42374:1,2020-04-16T20:15:00Z,28.8662,-88.0563,4.4,24.1,11111222
BP,ioos:station:wmo:42374:1,2020-04-16T20:35:00Z,28.8662,-88.0563,4.5,24.0,11111222
BP,ioos:station:wmo:42374:1,2020-04-16T20:55:00Z,28.8662,-88.0563,4.1,24.0,11111222
BP,ioos:station:wmo:42374:1,2020-04-16T21:15:00Z,28.8662,-88.0563,3.9,24.0,11111222
BP,ioos:station:wmo:42374:1,2020-04-16T21:35:00Z,28.8662,-88.0563,4.0,23.9,11111222
BP,ioos:station:wmo:42374:1,2020-04-16T21:55:00Z,28.8662,-88.0563,3.9,23.9,11111222
BP,ioos:station:wmo:42374:1,2020-04-16T22:15:00Z,28.8662,-88.0563,4.0,23.9,11111222
BP,ioos:station:wmo:42374:1,2020-04-16T22:35:00Z,28.8662,-88.0563,4.0,23.9,11111222
BP,ioos:station:wmo:42374:1,2020-04-16T22:55:00Z,28.8662,-88.0563,4.0,23.9,11111222
BP,ioos:station:wmo:42374:1,2020-04-16T23:15:00Z,28.8662,-88.0563,4.0,23.9,11111222
BP,ioos:station:wmo:42374:1,2020-04-16T23:35:00Z,28.8662,-88.0563,3.9,23.9,11111222
BP,ioos:station:wmo:42374:1,2020-04-16T23:55:00Z,28.8662,-88.0563,4.0,23.9,11111222
BP,ioos:station:wmo:42374:1,2020-04-17T00:15:00Z,28.8662,-88.0563,3.7,23.9,11111222
BP,ioos:station:wmo:42374:1,2020-04-17T00:35:00Z,28.8662,-88.0563,4.1,23.9,11111222
BP,ioos:station:wmo:42374:1,2020-04-17T00:55:00Z,28.8662,-88.0563,4.1,23.9,11111222
BP,ioos:station:wmo:42374:1,2020-04-17T01:15:00Z,28.8662,-88.0563,3.9,23.9,11111222
BP,ioos:station:wmo:42374:1,2020-04-17T01:35:00Z,28.8662,-88.0563,3.9,23.9,11111222
BP,ioos:station:wmo:42374:1,2020-04-17T01:55:00Z,28.8662,-88.0563,4.0,23.9,11111222
BP,ioos:station:wmo:42374:1,2020-04-17T02:15:00Z,28.8662,-88.0563,3.7,23.9,11111222
BP,ioos:station:wmo:42374:1,2020-04-17T02:35:00Z,28.8662,-88.0563,4.1,23.9,11111222
BP,ioos:station:wmo:42374:1,2020-04-17T02:55:00Z,28.8662,-88.0563,4.0,23.9,11111222
BP,ioos:station:wmo:42374:1,2020-04-17T03:15:00Z,28.8662,-88.0563,3.8,23.9,11111222
BP,ioos:station:wmo:42374:1,2020-04-17T03:35:00Z,28.8662,-88.0563,4.0,23.9,11111222
BP,ioos:station:wmo:42374:1,2020-04-17T03:55:00Z,28.8662,-88.0563,3.9,23.9,11111222
BP,ioos:station:wmo:42374:1,2020-04-17T04:15:00Z,28.8662,-88.0563,4.1,23.9,11111222
BP,ioos:station:wmo:42374:1,2020-04-17T04:35:00Z,28.8662,-88.0563,3.9,23.9,11111222
BP,ioos:station:wmo:42374:1,2020-04-17T04:55:00Z,28.8662,-88.0563,3.8,24.0,11111222
BP,ioos:station:wmo:42374:1,2020-04-17T05:15:00Z,28.8662,-88.0563,3.9,24.0,11111222
BP,ioos:station:wmo:42374:1,2020-04-17T05:35:00Z,28.8662,-88.0563,3.8,24.0,11111222
BP,ioos:station:wmo:42374:1,2020-04-17T05:55:00Z,28.8662,-88.0563,3.9,24.0,11111222
BP,ioos:station:wmo:42374:1,2020-04-17T06:15:00Z,28.8662,-88.0563,3.8,24.0,11111222
BP,ioos:station:wmo:42374:1,2020-04-17T06:35:00Z,28.8662,-88.0563,4.1,24.0,11111222
BP,ioos:station:wmo:42374:1,2020-04-17T06:55:00Z,28.8662,-88.0563,4.3,24.0,11111222
BP,ioos:station:wmo:42374:1,2020-04-17T07:15:00Z,28.8662,-88.0563,4.2,24.0,11111222
BP,ioos:station:wmo:42374:1,2020-04-17T07:35:00Z,28.8662,-88.0563,4.4,24.0,11111222
BP,ioos:station:wmo:42374:1,2020-04-17T07:55:00Z,28.8662,-88.0563,4.6,24.0,11111222
BP,ioos:station:wmo:42374:1,2020-04-17T08:15:00Z,28.8662,-88.0563,4.2,24.1,11111222
BP,ioos:station:wmo:42374:1,2020-04-17T08:35:00Z,28.8662,-88.0563,4.3,24.1,11111222
BP,ioos:station:wmo:42374:1,2020-04-17T08:55:00Z,28.8662,-88.0563,4.4,24.1,11111222
BP,ioos:station:wmo:42374:1,2020-04-17T09:15:00Z,28.8662,-88.0563,4.4,24.1,11111222
BP,ioos:station:wmo:42374:1,2020-04-17T09:35:00Z,28.8662,-88.0563,4.3,24.1,11111222
BP,ioos:station:wmo:42374:1,2020-04-17T09:55:00Z,28.8662,-88.0563,4.3,24.1,11111222
BP,ioos:station:wmo:42374:1,2020-04-17T10:15:00Z,28.8662,-88.0563,4.2,24.1,11111222
BP,ioos:station:wmo:42374:1,2020-04-17T10:35:00Z,28.8662,-88.0563,4.3,24.1,11111222
BP,ioos:station:wmo:42374:1,2020-04-17T10:55:00Z,28.8662,-88.0563,4.4,24.1,11111222
BP,ioos:station:wmo:42374:1,2020-04-17T11:15:00Z,28.8662,-88.0563,4.1,24.1,11111222
BP,ioos:station:wmo:42374:1,2020-04-17T11:35:00Z,28.8662,-88.0563,4.5,24.1,11111222
BP,ioos:station:wmo:42374:1,2020-04-17T11:55:00Z,28.8662,-88.0563,4.3,24.1,11111222
BP,ioos:station:wmo:42374:1,2020-04-17T12:15:00Z,28.8662,-88.0563,4.3,24.1,11111222
BP,ioos:station:wmo:42374:1,2020-04-17T12:35:00Z,28.8662,-88.0563,4.5,24.1,11111222
BP,ioos:station:wmo:42374:1,2020-04-17T12:55:00Z,28.8662,-88.0563,4.3,24.1,11111222
BP,ioos:station:wmo:42374:1,2020-04-17T13:15:00Z,28.8662,-88.0563,4.4,24.1,11111222
BP,ioos:station:wmo:42374:1,2020-04-17T13:35:00Z,28.8662,-88.0563,4.2,24.1,11111222
BP,ioos:station:wmo:42374:1,2020-04-17T13:55:00Z,28.8662,-88.0563,4.4,24.1,11111222
BP,ioos:station:wmo:42374:1,2020-04-17T14:15:00Z,28.8662,-88.0563,4.1,24.1,11111222
BP,ioos:station:wmo:42374:1,2020-04-17T14:35:00Z,28.8662,-88.0563,4.3,24.1,11111222
BP,ioos:station:wmo:42374:1,2020-04-17T14:55:00Z,28.8662,-88.0563,4.4,24.1,11111222
BP,ioos:station:wmo:42374:1,2020-04-17T15:15:00Z,28.8662,-88.0563,4.4,24.1,11111222
BP,ioos:station:wmo:42374:1,2020-04-17T15:35:00Z,28.8662,-88.0563,4.3,24.1,11111222
BP,ioos:station:wmo:42374:1,2020-04-17T15:55:00Z,28.8662,-88.0563,4.5,24.1,11111222
BP,ioos:station:wmo:42374:1,2020-04-17T16:15:00Z,28.8662,-88.0563,4.4,24.1,11111222
BP,ioos:station:wmo:42374:1,2020-04-17T16:35:00Z,28.8662,-88.0563,4.5,24.1,11111222
BP,ioos:station:wmo:42374:1,2020-04-17T16:55:00Z,28.8662,-88.0563,4.6,24.1,11111222
BP,ioos:station:wmo:42374:1,2020-04-17T17:15:00Z,28.8662,-88.0563,4.1,24.1,11111222
BP,ioos:station:wmo:42374:1,2020-04-17T17:35:00Z,28.8662,-88.0563,4.7,24.1,11111222
BP,ioos:station:wmo:42374:1,2020-04-17T17:55:00Z,28.8662,-88.0563,4.6,24.1,11111222
BP,ioos:station:wmo:42374:1,2020-04-17T18:15:00Z,28.8662,-88.0563,4.4,24.1,11111222
BP,ioos:station:wmo:42374:1,2020-04-17T18:35:00Z,28.8662,-88.0563,4.2,24.1,11111222
BP,ioos:station:wmo:42374:1,2020-04-17T18:55:00Z,28.8662,-88.0563,4.4,24.1,11111222
BP,ioos:station:wmo:42374:1,2020-04-17T19:15:00Z,28.8662,-88.0563,4.4,24.1,11111222
BP,ioos:station:wmo:42374:1,2020-04-17T19:35:00Z,28.8662,-88.0563,4.6,24.1,11111222
BP,ioos:station:wmo:42374:1,2020-04-17T19:55:00Z,28.8662,-88.0563,4.4,24.1,11111222
BP,ioos:station:wmo:42374:1,2020-04-17T20:15:00Z,28.8662,-88.0563,4.6,24.1,11111222
BP,ioos:station:wmo:42374:1,2020-04-17T20:35:00Z,28.8662,-88.0563,4.2,24.0,11111222
BP,ioos:station:wmo:42374:1,2020-04-17T20:55:00Z,28.8662,-88.0563,4.3,24.0,11111222
BP,ioos:station:wmo:42374:1,2020-04-17T21:15:00Z,28.8662,-88.0563,4.3,24.0,11111222
BP,ioos:station:wmo:42374:1,2020-04-17T21:35:00Z,28.8662,-88.0563,4.4,24.0,11111222
BP,ioos:station:wmo:42374:1,2020-04-17T21:55:00Z,28.8662,-88.0563,3.9,24.0,11111222
BP,ioos:station:wmo:42374:1,2020-04-17T22:15:00Z,28.8662,-88.0563,3.8,24.0,11111222
BP,ioos:station:wmo:42374:1,2020-04-17T22:35:00Z,28.8662,-88.0563,4.0,24.0,11111222
BP,ioos:station:wmo:42374:1,2020-04-17T22:55:00Z,28.8662,-88.0563,3.8,24.0,11111222
BP,ioos:station:wmo:42374:1,2020-04-17T23:15:00Z,28.8662,-88.0563,3.8,24.0,11111222
BP,ioos:station:wmo:42374:1,2020-04-17T23:35:00Z,28.8662,-88.0563,3.9,24.0,11111222
BP,ioos:station:wmo:42374:1,2020-04-17T23:55:00Z,28.8662,-88.0563,4.0,24.0,11111222
BP,ioos:station:wmo:42374:1,2020-04-18T00:15:00Z,28.8662,-88.0563,3.8,24.0,11111222
BP,ioos:station:wmo:42374:1,2020-04-18T00:35:00Z,28.8662,-88.0563,3.8,24.0,11111222
BP,ioos:station:wmo:42374:1,2020-04-18T00:55:00Z,28.8662,-88.0563,4.0,24.0,11111222
BP,ioos:station:wmo:42374:1,2020-04-18T01:15:00Z,28.8662,-88.0563,3.8,24.0,11111222
BP,ioos:station:wmo:42374:1,2020-04-18T01:35:00Z,28.8662,-88.0563,4.2,24.0,11111222
BP,ioos:station:wmo:42374:1,2020-04-18T01:55:00Z,28.8662,-88.0563,3.8,24.0,11111222
BP,ioos:station:wmo:42374:1,2020-04-18T02:15:00Z,28.8662,-88.0563,4.2,24.0,11111222
BP,ioos:station:wmo:42374:1,2020-04-18T02:35:00Z,28.8662,-88.0563,4.0,24.0,11111222
BP,ioos:station:wmo:42374:1,2020-04-18T02:55:00Z,28.8662,-88.0563,3.8,24.0,11111222
BP,ioos:station:wmo:42374:1,2020-04-18T03:15:00Z,28.8662,-88.0563,4.0,24.0,11111222
BP,ioos:station:wmo:42374:1,2020-04-18T03:35:00Z,28.8662,-88.0563,3.8,23.9,11111222
BP,ioos:station:wmo:42374:1,2020-04-18T03:55:00Z,28.8662,-88.0563,4.1,24.0,11111222
BP,ioos:station:wmo:42374:1,2020-04-18T04:15:00Z,28.8662,-88.0563,3.9,23.9,11111222
BP,ioos:station:wmo:42374:1,2020-04-18T04:35:00Z,28.8662,-88.0563,3.6,23.9,11111222
BP,ioos:station:wmo:42374:1,2020-04-18T04:55:00Z,28.8662,-88.0563,3.8,24.0,11111222
BP,ioos:station:wmo:42374:1,2020-04-18T05:15:00Z,28.8662,-88.0563,3.5,24.0,11111222
BP,ioos:station:wmo:42374:1,2020-04-18T05:35:00Z,28.8662,-88.0563,3.6,24.0,11111222
BP,ioos:station:wmo:42374:1,2020-04-18T05:55:00Z,28.8662,-88.0563,3.7,24.0,11111222
BP,ioos:station:wmo:42374:1,2020-04-18T06:15:00Z,28.8662,-88.0563,3.9,24.0,11111222
BP,ioos:station:wmo:42374:1,2020-04-18T06:35:00Z,28.8662,-88.0563,3.9,24.0,11111222
BP,ioos:station:wmo:42374:1,2020-04-18T06:55:00Z,28.8662,-88.0563,3.9,24.0,11111222
BP,ioos:station:wmo:42374:1,2020-04-18T07:15:00Z,28.8662,-88.0563,3.9,24.0,11111222
BP,ioos:station:wmo:42374:1,2020-04-18T07:35:00Z,28.8662,-88.0563,4.2,24.0,11111222